Wind_Speed
9 8 9 9 10 10 9 8 8 9 9 10 12 13 15 16 17 18 18 18 18 19 19 18 18 18 17 17 16 15 14 13 12 10 10 10 10 10 10 10 8 7 7 6 6 5 5 5 5 4 3 2 2 2 2 1 2 2 2 3 3 3 2 3 3 3 3 2 2
6 6 7 8 9 9 8 8 8 9 10 12 13 14 15 16 17 17 17 18 18 18 18 18 17 17 17 16 16 15 14 13 12 11 10 9 9 9 9 8 7 6 6 7 6 6 6 5 4 4 3 3 3 3 3 3 3 3 3 3 3 2 2 2 3 3 3 3 4
6 6 6 7 8 8 9 9 10 11 12 13 14 14 15 16 16 16 16 17 17 18 17 17 17 17 16 16 15 14 14 13 13 12 11 9 8 8 7 7 7 7 8 8 8 7 6 5 5 4 3 4 4 4 4 3 3 3 3 3 2 2 2 3 3 4 4 4 5
6 7 7 8 8 9 10 10 11 12 13 13 13 14 15 15 15 15 16 17 17 17 17 17 17 16 16 15 15 14 14 13 12 12 10 9 8 8 7 7 7 7 7 7 6 6 6 6 6 5 5 5 5 5 5 4 4 4 4 3 3 4 4 4 5 5 5 5 5
7 7 8 8 9 9 9 10 11 12 12 12 13 14 14 15 15 16 16 17 17 17 17 17 17 16 16 15 15 15 14 13 12 11 10 9 8 8 8 9 9 8 7 6 6 7 7 6 6 6 7 7 7 7 6 5 5 5 4 5 6 6 7 7 6 6 6 6 6
8 8 8 8 8 9 10 10 11 12 12 13 13 14 15 16 17 18 18 19 19 19 18 17 17 16 16 16 15 14 14 13 12 11 10 9 9 9 9 9 8 8 8 7 7 7 8 8 8 8 8 8 7 7 6 6 6 6 6 7 8 8 8 8 8 7 7 7 7
9 9 9 9 9 10 10 11 11 12 12 13 14 15 17 18 18 19 20 20 19 19 18 17 16 16 16 15 15 14 14 13 12 11 11 11 10 9 9 9 9 8 8 8 9 9 10 10 10 9 8 7 7 7 7 7 7 8 8 9 9 9 9 9 9 8 8 9 9
9 9 10 10 10 10 11 11 11 12 13 13 15 16 17 18 18 19 19 19 18 18 17 17 16 16 15 15 15 14 14 13 12 12 12 11 10 10 10 10 10 9 10 10 11 11 11 11 10 10 8 7 7 7 8 9 9 9 9 9 9 10 10 10 10 9 10 10 10
10 10 10 11 11 11 11 11 11 12 13 14 15 17 18 18 18 18 18 18 18 17 17 17 16 16 16 15 15 14 14 13 13 12 11 11 11 11 11 11 11 11 12 12 12 12 12 11 10 9 9 8 8 9 10 10 10 10 10 10 10 10 10 11 11 11 11 11 12
10 10 11 11 11 11 11 12 12 13 14 15 16 17 18 18 18 18 18 18 17 17 17 17 17 16 15 15 15 14 14 13 13 12 12 12 12 12 12 12 13 13 13 13 12 12 11 11 10 10 10 10 10 10 10 10 10 10 10 10 11 11 11 11 11 11 11 12 12
11 11 11 12 12 11 11 12 13 14 15 16 17 18 19 20 20 20 19 18 18 18 18 17 17 16 15 15 15 14 14 13 13 13 13 12 12 12 13 14 14 14 14 14 13 12 11 11 11 10 11 11 10 10 11 11 11 11 11 10 10 11 11 11 11 11 11 12 12
11 11 12 12 12 12 12 13 14 15 15 16 18 19 20 21 21 20 20 19 18 18 18 17 16 16 15 15 14 14 13 13 12 12 13 13 13 13 14 15 16 16 15 14 13 12 11 11 11 11 11 11 10 10 11 11 12 12 12 11 11 11 11 11 11 11 11 11 12
11 11 12 12 12 12 12 13 14 15 16 17 19 20 21 21 21 21 20 18 18 17 17 16 15 15 14 15 14 14 13 13 13 14 14 14 14 15 16 17 17 16 15 14 13 12 12 12 12 12 12 12 11 11 11 12 12 12 12 12 11 11 11 11 11 11 11 11 11
11 11 12 12 12 12 13 14 15 16 17 18 19 20 21 21 21 20 19 18 17 17 17 16 15 13 13 13 13 14 14 15 15 16 16 16 16 16 17 16 16 15 14 13 13 13 13 13 13 13 14 13 13 12 12 12 13 13 13 12 12 12 11 11 11 11 11 12 12
11 11 11 12 12 13 13 15 16 16 17 18 19 20 20 20 20 19 17 16 16 16 15 14 13 12 12 12 12 13 14 15 15 16 16 16 16 16 15 15 15 15 14 14 14 14 14 15 15 15 15 15 14 13 13 13 13 13 13 12 12 12 11 11 11 11 12 12 12
11 11 11 12 13 13 14 15 16 17 17 18 18 18 18 18 18 16 15 13 13 13 12 12 12 11 11 11 11 12 13 14 15 16 16 16 16 15 15 16 16 16 15 15 15 15 16 16 17 17 16 16 15 14 13 13 13 12 12 12 12 11 11 11 11 11 12 12 12
11 11 12 12 13 14 15 16 16 16 16 16 16 15 15 14 14 13 12 11 10 10 10 10 10 10 11 11 11 12 13 14 15 16 16 17 17 16 16 16 16 16 16 16 17 17 17 17 17 17 17 16 15 14 12 12 11 11 11 11 11 11 11 11 11 11 11 12 12
11 12 12 13 14 15 15 15 15 14 14 13 13 12 12 11 11 10 9 8 8 9 9 9 9 9 10 11 12 13 14 15 16 17 18 18 17 16 15 15 15 15 15 15 15 15 15 14 14 14 14 13 12 11 10 9 8 8 8 9 9 9 9 10 10 10 11 11 12
11 12 13 13 14 14 14 13 12 12 12 11 11 10 10 9 9 9 8 8 8 8 9 9 9 9 10 11 13 13 14 15 16 16 16 15 14 13 13 13 13 13 13 13 13 12 11 11 11 10 10 9 9 8 8 7 6 6 6 6 7 7 8 8 9 9 10 11 12
11 12 12 13 13 13 12 11 10 10 10 10 9 9 9 9 9 9 9 9 9 9 9 9 9 10 10 11 12 13 13 13 12 12 11 11 11 11 12 12 12 12 12 11 11 10 9 9 8 8 8 8 8 8 7 6 5 5 5 5 6 7 7 8 9 10 10 11 12
10 11 12 12 12 11 10 9 9 9 8 8 8 8 8 8 9 9 9 9 9 9 9 9 10 10 11 11 11 11 10 9 9 9 9 10 11 12 13 14 14 14 13 12 11 10 10 10 9 9 8 8 8 8 8 7 6 6 6 6 7 8 8 9 10 10 11 12 12
10 10 11 11 10 9 8 8 7 7 7 7 7 7 7 8 8 8 8 9 9 10 10 10 10 10 10 10 9 9 9 8 9 9 10 11 12 14 15 15 15 15 15 14 13 13 13 12 11 11 10 10 10 10 10 10 10 10 9 9 9 10 10 11 11 11 12 12 13
9 9 9 9 8 7 7 7 7 7 7 6 6 7 7 8 8 8 8 9 10 10 10 10 10 9 9 9 9 9 9 9 9 9 10 10 11 13 14 14 13 12 13 13 14 15 15 14 13 12 12 12 12 13 13 13 13 12 11 11 11 11 12 12 12 12 13 13 13
8 8 7 6 6 6 6 6 6 7 7 7 7 7 7 7 7 7 8 9 9 9 8 8 8 8 7 7 8 8 8 9 9 9 9 9 9 10 11 12 11 10 11 11 13 15 15 15 15 14 14 13 13 14 14 14 12 12 12 12 12 13 13 13 13 13 14 14 14
6 5 5 4 4 5 5 6 7 7 7 7 8 8 7 7 7 7 7 7 8 7 7 7 7 7 7 7 8 8 8 8 8 9 9 10 10 10 10 10 10 10 11 11 13 14 15 15 15 15 15 14 14 14 14 14 14 13 13 13 13 14 14 15 15 14 14 14 13
3 3 3 3 4 5 6 6 7 7 8 8 8 8 8 7 7 7 7 7 8 8 8 8 8 8 8 8 9 9 9 9 9 9 10 10 10 10 11 11 10 10 11 12 13 14 14 14 14 15 15 15 15 14 14 14 14 14 14 14 14 14 14 15 15 14 14 13 13
2 2 3 3 4 5 6 7 7 8 8 8 8 8 8 8 8 8 8 8 8 8 8 8 8 8 9 9 10 10 10 10 10 10 10 10 11 11 11 11 10 10 10 12 13 13 13 13 13 14 14 15 14 14 14 14 14 14 14 14 13 13 13 14 14 14 14 13 13
1 2 3 4 5 6 6 7 7 7 8 8 8 8 8 8 8 8 8 9 9 9 9 8 8 8 9 9 10 10 10 10 10 10 10 10 10 11 11 10 10 10 11 12 13 13 13 13 13 13 14 14 14 14 14 14 14 14 13 13 13 13 13 13 13 14 14 14 14
1 2 3 4 5 6 6 6 6 7 7 7 7 7 8 8 8 8 8 9 9 9 9 9 9 9 10 10 11 11 11 10 10 9 9 9 10 10 10 10 10 10 10 12 12 12 12 12 12 12 12 13 12 12 12 13 13 13 13 13 13 13 13 14 14 14 14 15 15
2 2 3 4 4 5 5 5 6 6 6 6 7 7 8 8 8 8 8 9 9 9 9 9 10 10 10 11 11 11 11 10 10 10 10 10 10 10 11 11 10 9 9 10 11 11 11 11 10 10 11 11 11 11 12 13 14 14 15 15 15 15 15 15 15 15 15 16 16
2 3 3 3 3 4 4 4 5 5 5 6 7 7 8 8 8 8 9 9 10 10 10 10 11 11 11 11 11 11 11 11 11 11 11 11 11 11 11 11 10 8 7 9 10 11 11 10 10 11 11 12 12 13 13 15 15 16 16 16 16 16 16 16 16 16 16 16 17
3 3 3 3 3 3 3 4 4 4 5 6 7 7 8 8 9 9 9 9 10 11 11 11 12 12 12 12 12 12 11 11 11 11 11 11 11 12 12 12 10 7 6 8 10 11 11 12 12 12 13 14 14 14 15 16 16 17 17 17 17 17 17 17 17 17 17 17 17
3 3 3 2 2 3 3 3 3 4 5 6 7 8 8 9 9 9 10 10 11 12 12 12 12 12 12 12 12 12 12 11 11 11 11 12 12 12 13 13 11 8 8 10 12 12 13 13 14 14 15 16 16 16 16 17 17 17 18 18 18 17 17 17 17 17 17 17 17
3 3 3 2 2 2 3 3 4 4 5 6 7 8 9 10 10 10 10 11 11 12 12 13 13 12 12 12 12 12 12 11 11 11 12 12 12 13 13 13 11 10 11 12 13 14 15 15 16 16 18 19 18 17 17 17 17 18 18 18 18 18 17 17 17 17 17 17 17
2 2 2 2 2 2 3 4 5 5 6 7 8 9 9 10 11 11 11 11 12 13 13 13 13 13 12 12 12 12 12 11 11 11 11 12 12 13 13 13 12 12 13 14 15 16 16 17 18 19 20 20 18 17 17 17 18 18 18 18 18 18 17 17 17 17 17 17 17
2 2 2 2 3 3 4 5 6 7 7 8 8 9 10 11 11 11 12 12 13 13 13 13 13 13 12 12 12 12 12 12 11 11 11 11 12 12 13 13 13 12 13 14 16 17 18 19 19 20 20 19 17 16 17 17 17 17 18 18 18 17 17 17 16 17 17 17 17
2 2 2 3 4 5 5 6 7 8 9 9 10 10 11 12 12 12 12 12 13 13 14 13 13 13 12 12 12 12 12 12 11 11 11 11 11 12 13 13 13 13 13 14 16 18 20 20 20 20 19 17 16 16 16 16 16 17 17 17 17 16 16 16 16 16 16 16 16
3 3 3 4 5 6 7 7 8 9 9 10 11 11 12 12 13 13 13 12 13 13 13 13 13 13 12 12 12 12 12 12 11 11 10 10 11 11 12 13 14 14 13 14 17 19 20 21 20 19 17 16 15 15 16 16 16 16 16 16 16 16 15 15 15 15 15 15 15
3 4 4 5 6 7 8 9 9 10 10 11 11 12 12 13 13 13 12 12 12 12 13 13 13 13 12 12 12 12 12 12 11 10 10 10 10 11 12 13 14 14 14 14 16 18 19 20 19 18 16 15 15 15 15 15 15 15 15 15 15 15 15 15 15 15 15 15 15
4 5 5 6 7 8 9 10 10 11 11 11 11 12 12 12 12 12 12 12 12 12 12 12 13 13 13 12 12 12 12 12 11 11 10 9 10 11 12 12 13 14 14 14 15 16 17 18 17 16 15 14 14 14 14 14 14 15 14 14 14 14 14 14 14 14 15 15 16
4 5 6 6 7 8 9 10 10 11 11 11 11 11 11 11 11 12 12 12 12 12 12 13 13 13 13 13 12 12 11 11 12 11 11 10 11 11 12 12 13 14 14 14 15 15 16 16 16 15 14 13 13 13 13 13 14 14 14 14 14 14 14 15 15 15 16 16 16
Wind_Direction
352 352 349 346 343 342 339 335 335 334 333 331 331 330 329 327 324 319 314 310 306 303 301 299 298 298 298 297 294 290 287 283 279 277 279 284 289 296 300 299 294 288 287 289 285 285 284 275 275 269 257 244 225 219 216 197 178 174 166 153 135 134 133 122 120 117 112 115 127
347 345 341 338 338 337 334 330 330 331 330 329 328 327 325 323 319 315 310 306 304 301 299 298 297 296 296 294 291 286 282 279 275 274 276 280 284 290 293 290 284 282 286 293 284 280 276 258 255 244 225 217 214 208 198 185 176 162 146 136 134 129 122 118 122 131 136 134 130
336 334 332 330 330 329 327 326 326 326 325 325 324 323 320 317 313 309 305 303 301 299 297 296 296 295 294 292 287 283 279 275 273 272 273 275 279 283 283 279 280 285 290 290 280 269 256 234 230 218 209 218 214 204 189 175 168 163 157 154 153 156 157 155 155 154 150 144 137
329 329 328 327 328 327 325 324 323 323 323 322 321 319 316 312 308 304 301 300 299 297 296 295 295 294 291 288 284 279 275 272 269 269 270 271 272 275 276 269 272 276 277 272 257 242 231 221 219 221 225 228 224 218 210 198 191 187 184 184 194 200 199 193 184 174 164 156 151
327 328 327 327 328 327 325 322 321 320 319 318 317 316 314 312 309 306 304 302 301 299 297 295 293 291 288 284 280 275 270 266 263 263 265 265 265 267 271 273 275 268 256 247 236 227 218 213 221 231 234 232 233 233 228 218 208 199 198 207 214 215 211 205 197 187 178 169 164
325 325 325 324 324 323 321 320 318 317 315 314 312 313 314 315 314 312 310 307 304 300 296 293 290 287 284 280 274 269 264 260 256 257 259 261 264 264 264 268 261 256 251 238 231 227 225 228 236 239 238 238 238 236 231 225 218 215 219 226 225 220 212 202 195 188 181 176 173
322 321 319 319 319 319 318 317 316 315 313 311 311 311 312 313 313 311 308 305 302 298 295 291 286 283 280 275 269 264 260 256 254 254 257 264 262 257 255 260 255 249 243 239 242 243 242 240 244 244 239 234 236 235 231 225 224 228 233 231 226 217 206 197 193 189 184 182 182
316 314 315 315 315 316 315 314 313 312 311 310 310 310 310 309 308 306 304 301 298 295 292 288 284 280 276 270 265 261 258 256 255 257 260 260 255 253 255 258 253 249 250 254 253 249 243 242 245 246 243 232 225 225 229 232 236 236 232 223 216 209 202 196 193 190 189 189 191
309 310 311 312 312 312 312 311 310 309 308 309 309 310 310 308 305 302 300 299 297 294 290 287 284 279 273 267 262 259 257 255 257 258 256 256 255 255 255 254 251 255 259 258 253 248 244 243 245 245 240 233 234 235 236 239 236 228 219 213 208 204 200 198 195 194 194 196 199
305 306 308 309 309 310 310 310 309 308 309 310 312 313 313 311 308 304 302 299 296 293 290 288 284 279 271 265 260 257 256 256 257 257 257 259 257 254 253 257 259 260 259 254 250 248 245 243 243 243 242 240 243 240 235 232 223 214 209 208 205 202 200 200 200 200 202 204 206
301 303 305 306 306 307 308 309 309 310 312 313 315 317 316 315 312 309 305 300 296 293 291 289 284 277 271 265 262 259 257 257 259 261 260 257 255 254 256 262 263 261 257 253 251 248 244 241 241 242 242 241 239 234 228 222 214 207 204 204 202 201 202 204 205 207 209 211 213
298 300 302 303 304 306 308 309 310 312 314 315 317 318 318 317 314 311 307 302 297 293 292 289 283 277 272 270 267 265 263 262 263 263 262 261 260 261 264 267 267 264 260 255 250 247 244 241 241 240 239 234 230 225 220 214 210 207 206 205 205 206 208 211 213 214 216 217 218
296 299 301 302 304 306 308 310 312 314 315 317 318 319 319 318 316 313 309 304 299 296 294 291 285 278 274 273 272 271 270 270 271 271 270 269 269 270 272 274 272 269 265 257 250 247 246 245 242 239 235 228 224 221 218 213 213 213 213 214 215 217 219 220 222 224 225 225 226
296 299 302 305 307 310 312 314 315 317 318 319 320 320 320 319 317 314 310 305 301 299 297 293 288 281 276 276 277 277 277 278 279 279 278 278 279 281 282 282 280 276 270 263 254 249 248 248 246 243 237 230 227 224 220 218 219 221 223 225 226 228 230 231 232 232 232 232 231
299 302 306 309 313 315 317 319 319 320 321 321 321 321 320 319 318 315 311 305 302 300 298 295 291 286 282 281 282 283 284 284 285 285 286 287 290 292 293 291 286 281 275 269 262 256 253 252 250 248 244 238 234 229 226 223 225 228 232 236 237 239 240 239 238 236 234 232 231
305 309 313 317 320 321 322 323 323 323 323 323 323 323 322 320 319 318 315 310 307 305 303 300 297 294 290 288 289 291 293 293 294 296 298 300 302 302 298 291 286 281 278 274 269 264 260 257 255 253 250 247 243 239 235 232 232 235 239 242 244 244 244 243 241 237 234 231 230
313 317 321 324 325 326 326 326 326 325 325 326 326 327 326 325 325 324 324 323 319 316 314 311 309 305 302 301 302 304 305 306 309 311 310 307 305 301 296 290 286 284 283 281 278 275 270 267 264 261 258 255 252 248 244 241 239 240 241 242 243 244 244 244 242 240 237 235 235
320 324 327 330 330 330 329 329 329 329 329 330 332 333 335 336 336 337 339 342 341 337 333 330 326 320 317 317 319 318 319 322 320 316 311 307 303 300 297 295 294 293 292 291 290 287 286 283 281 278 274 268 263 258 254 250 244 240 239 240 242 244 245 246 246 246 246 245 246
326 330 332 334 333 333 332 333 333 334 335 337 339 341 345 350 354 357 359 1 2 357 350 344 342 336 330 328 329 329 328 328 324 318 314 311 309 309 309 310 309 307 305 304 302 300 300 299 300 300 299 294 285 277 270 262 250 242 239 240 243 246 249 251 253 255 256 256 256
331 334 335 335 335 335 336 336 337 339 341 342 345 348 352 358 4 7 5 1 1 358 353 349 347 343 337 332 333 335 337 337 335 331 329 329 329 330 331 331 329 325 322 320 318 317 315 314 313 313 313 311 304 296 288 279 268 258 251 250 252 254 257 259 261 263 263 262 262
335 336 336 335 334 335 337 338 340 342 344 346 349 353 357 2 3 2 359 355 353 349 345 339 335 332 330 330 335 342 348 351 349 347 347 348 348 347 345 343 342 339 337 335 334 332 330 327 324 319 314 309 302 297 294 292 290 285 279 273 269 266 264 263 263 263 263 263 263
335 335 334 334 334 336 337 340 341 343 345 348 353 358 2 5 5 4 360 353 347 343 338 335 333 333 336 339 345 350 353 353 353 352 351 351 350 350 348 347 345 343 340 337 334 332 330 328 324 319 313 306 301 296 294 294 295 294 290 284 277 272 268 265 263 262 261 261 262
333 333 333 333 335 338 341 343 343 344 346 350 357 3 8 10 10 7 2 356 353 351 350 351 352 354 356 357 357 355 353 351 350 349 347 346 345 344 344 344 341 337 334 331 330 329 327 325 322 318 313 307 302 299 296 296 296 294 291 286 281 277 273 270 268 266 264 263 262
331 332 335 338 342 344 346 346 345 346 348 352 358 4 9 11 11 9 6 3 3 5 7 9 9 8 5 1 357 353 351 348 345 343 340 337 335 334 335 335 331 327 324 322 323 325 324 322 320 318 314 310 305 301 299 298 293 289 287 285 283 281 279 276 273 271 268 266 264
331 336 341 347 349 350 348 347 345 346 350 353 357 1 5 7 8 8 8 9 10 10 9 6 2 359 356 351 348 346 343 341 338 335 332 330 327 325 325 324 320 318 316 312 317 320 320 319 318 316 313 310 305 301 297 294 290 286 284 283 282 282 281 279 276 273 270 267 264
332 339 347 352 351 349 347 345 346 348 351 353 355 358 1 3 4 5 5 4 3 1 357 354 351 350 348 344 341 339 337 334 332 330 327 324 323 321 319 317 315 312 310 310 314 316 316 315 313 312 310 306 302 298 294 292 289 286 283 281 280 280 279 278 276 274 270 267 264
327 338 344 347 347 344 342 342 344 347 350 353 355 358 359 0 1 1 1 360 358 355 352 350 348 346 344 340 338 335 333 330 328 325 322 320 318 316 315 313 311 306 305 308 313 315 314 312 310 307 305 302 297 293 290 288 287 285 282 280 278 277 275 275 275 274 271 269 267
319 333 339 340 340 340 341 343 347 350 354 356 358 360 1 1 1 0 359 357 354 351 349 346 344 341 339 336 334 331 328 326 323 321 319 317 315 312 310 309 307 304 304 308 312 313 312 309 307 304 301 298 293 289 285 284 284 283 281 278 277 276 275 274 274 274 273 272 271
309 325 332 336 338 339 343 348 354 358 359 0 2 2 2 2 1 359 356 353 350 348 345 342 339 337 335 332 329 327 325 323 320 317 314 312 311 309 308 306 302 299 301 306 310 311 310 308 305 303 300 297 293 289 286 286 285 284 282 280 279 278 277 275 275 275 275 274 274
301 318 329 336 340 344 350 359 6 8 7 5 3 2 0 358 356 353 351 349 347 345 341 337 335 334 331 328 326 325 325 325 323 321 318 315 313 312 311 308 305 301 299 303 310 314 314 311 309 306 303 300 298 295 291 289 287 285 284 282 281 279 278 278 277 277 277 278 278
309 322 330 337 347 355 4 12 16 15 11 5 1 358 355 352 349 347 346 345 343 341 338 335 333 331 329 328 326 326 326 326 326 325 323 320 318 317 316 314 310 304 300 306 316 319 317 314 310 307 304 302 302 299 295 291 288 286 284 282 281 280 280 280 280 280 280 281 281
321 327 333 345 1 14 19 21 18 13 8 2 357 353 348 345 343 342 342 342 341 339 336 334 332 330 328 328 327 327 328 328 328 327 326 324 322 321 321 319 318 312 306 313 319 319 316 312 309 306 304 304 304 300 295 291 288 286 284 283 281 281 281 281 282 282 283 283 283
326 330 338 354 15 25 24 18 9 2 357 353 349 346 342 340 339 338 339 339 339 337 335 332 331 329 327 327 327 327 328 328 327 327 326 325 323 323 322 321 322 317 313 316 318 317 315 313 310 309 308 308 307 301 294 290 288 286 285 283 283 282 283 283 284 284 285 285 285
325 331 341 357 12 18 12 2 353 347 344 343 342 340 338 337 336 336 336 337 336 335 333 331 329 327 325 325 326 326 325 325 324 324 324 324 323 322 321 319 319 318 317 317 317 316 316 315 314 312 311 311 308 302 295 291 289 287 285 284 284 284 285 285 286 286 286 286 285
319 328 337 346 353 357 352 345 340 336 334 335 334 335 335 336 335 334 334 335 333 332 330 329 327 325 324 324 324 324 323 321 321 321 322 322 321 320 319 316 316 317 318 316 315 315 316 316 315 314 313 312 308 301 296 293 291 288 286 285 285 285 285 286 287 287 287 287 286
302 301 304 317 331 337 336 334 332 330 330 330 330 331 332 333 333 332 332 332 330 329 328 327 326 325 324 324 324 323 321 320 318 318 319 319 319 318 316 315 314 316 318 316 315 315 316 317 316 314 314 312 307 301 297 294 291 289 287 286 285 286 287 288 288 289 288 288 287
282 268 270 296 320 328 329 327 326 326 327 328 328 329 330 330 330 330 330 329 328 326 326 325 325 325 325 325 324 322 320 318 316 315 316 316 317 316 315 315 314 315 315 314 313 314 316 317 316 315 314 311 306 301 298 295 292 290 288 288 287 288 289 290 290 290 288 286 285
289 283 284 299 316 323 324 323 323 323 323 324 326 327 327 327 327 328 328 327 325 324 323 324 324 325 325 324 322 320 318 317 314 313 312 313 314 314 314 313 312 312 312 311 311 313 315 317 317 316 314 310 305 301 299 296 293 292 291 291 290 291 291 290 289 288 286 284 283
297 301 305 309 314 319 321 322 321 321 320 321 323 324 325 325 325 325 324 323 322 322 322 322 323 324 323 322 320 318 316 315 314 311 309 309 310 311 311 310 309 309 309 309 309 311 313 315 316 315 313 310 305 302 300 298 295 293 292 291 290 290 289 288 287 286 285 285 283
291 296 301 306 311 316 318 320 319 318 318 319 320 321 322 322 321 321 320 320 320 321 321 321 322 323 322 321 317 315 314 314 313 311 307 305 305 305 305 304 304 305 307 308 309 309 311 312 313 313 312 310 306 304 301 299 296 293 291 290 290 290 290 289 288 287 287 286 284
280 287 295 303 310 314 316 316 316 316 316 317 318 318 318 318 318 318 319 319 320 320 320 320 321 322 321 319 315 313 312 312 311 309 306 302 300 299 299 299 301 304 307 309 311 310 310 310 310 311 311 309 307 305 302 300 297 296 297 297 297 296 295 294 292 290 288 286 284
Height
818 818 818 818 817 817 817 817 817 816 816 816 816 815 815 815 814 813 813 812 811 810 808 807 806 805 804 803 803 802 801 801 800 799 799 798 797 797 796 796 795 795 794 794 793 793 792 792 791 791 791 790 790 790 789 789 789 789 789 789 789 789 789 789 789 788 788 788 788
818 817 817 817 817 817 817 817 816 816 816 815 815 815 814 814 813 813 812 811 810 809 807 806 805 804 803 802 801 801 801 800 799 798 798 797 796 796 795 795 794 793 793 793 792 792 792 791 791 791 790 790 790 789 789 789 789 789 789 789 789 789 789 789 788 788 788 788 788
817 817 817 817 817 817 817 816 816 816 815 815 814 814 814 813 812 811 810 809 808 807 806 805 803 802 801 801 801 800 800 799 798 797 797 796 795 795 794 794 793 792 792 792 791 791 791 791 790 790 790 789 789 789 788 788 788 788 788 788 788 788 788 788 788 788 787 787 787
817 817 817 817 817 816 816 816 816 815 815 814 814 813 812 811 811 810 809 807 806 806 804 803 802 801 800 800 799 799 798 798 797 796 796 795 794 794 793 793 792 791 791 791 790 790 790 790 790 789 789 789 789 788 788 787 787 787 787 787 787 787 787 787 787 786 786 786 786
817 817 817 816 816 816 816 816 815 815 814 813 813 812 811 810 809 808 807 806 805 804 803 802 801 800 799 798 798 797 797 796 796 795 795 794 793 793 792 792 791 791 790 790 789 789 789 789 789 788 788 788 788 787 787 786 786 786 786 786 786 785 785 785 785 785 785 785 785
816 816 816 816 816 815 815 815 814 814 813 812 811 811 810 809 808 807 806 805 804 802 801 800 799 798 797 797 796 796 795 795 794 794 793 793 792 791 791 791 790 790 789 789 788 788 788 788 788 787 787 787 786 786 786 786 786 785 785 784 784 784 784 784 784 784 784 784 784
816 816 816 815 815 814 814 814 813 812 812 811 811 810 809 808 807 806 805 804 802 801 800 799 798 797 796 795 795 794 794 793 793 792 792 791 791 791 790 790 789 789 788 788 788 787 787 787 787 786 786 786 786 785 785 785 785 784 783 783 783 782 782 782 782 782 783 783 783
816 815 815 814 814 813 813 812 812 811 811 810 809 808 807 806 805 804 803 802 801 799 798 797 796 795 795 794 793 793 792 792 791 791 791 790 790 789 789 788 788 788 787 787 787 786 786 786 786 785 785 785 785 784 784 783 783 783 782 782 781 781 781 781 781 781 781 782 782
815 814 813 813 812 812 811 811 810 810 809 808 807 806 805 804 803 802 801 800 799 798 796 796 795 794 793 792 792 791 791 791 790 790 789 789 789 788 788 787 787 786 786 786 786 785 785 785 785 785 784 784 784 783 782 782 782 781 781 781 781 781 780 780 780 780 781 781 781
813 813 812 812 811 811 810 809 809 808 807 806 805 805 804 803 801 801 800 798 797 796 795 794 793 793 792 791 791 790 790 790 789 789 788 788 787 787 786 786 786 785 784 784 784 784 784 784 784 784 783 783 783 782 781 781 781 781 780 780 780 780 780 780 780 780 780 780 780
812 812 811 811 810 809 809 808 807 806 806 805 804 803 802 801 800 799 798 797 796 795 794 793 792 791 791 790 790 789 789 789 788 788 787 787 786 786 786 785 784 784 783 782 782 783 783 783 783 783 782 782 782 781 781 780 780 780 779 779 779 779 779 780 780 780 780 779 779
811 811 810 809 809 808 807 806 806 805 804 803 802 801 800 799 798 797 796 795 794 793 792 791 791 790 790 790 789 789 789 788 788 787 787 786 786 785 785 784 783 782 781 781 781 781 781 781 781 781 781 781 781 781 780 780 779 779 779 778 778 778 778 778 779 779 778 778 778
810 810 809 808 807 807 806 805 804 803 802 801 801 800 799 798 797 796 795 794 793 792 791 790 790 789 789 789 788 788 788 788 787 787 786 786 785 784 784 783 782 782 781 780 780 780 780 780 780 780 780 780 779 779 779 779 778 778 777 777 777 776 776 777 777 777 776 776 776
809 808 808 807 806 806 805 804 803 802 801 800 800 799 798 797 796 795 794 793 792 791 790 790 789 789 788 788 788 788 787 787 787 786 786 785 784 784 783 782 782 781 781 780 779 779 779 779 779 778 778 777 777 777 776 777 777 776 776 776 775 775 775 775 775 775 775 775 775
808 807 807 806 806 805 804 803 802 801 800 799 799 798 797 796 795 794 793 792 791 791 790 789 788 788 788 788 788 787 787 786 786 786 785 784 784 784 783 783 782 782 781 780 779 778 778 778 777 777 776 776 775 775 774 774 775 775 775 774 774 774 774 774 774 774 774 774 774
807 806 806 805 805 804 803 802 801 801 800 799 798 797 796 795 794 793 792 791 791 790 790 789 789 788 788 788 788 787 787 786 786 786 785 785 784 784 783 783 782 782 781 780 779 778 777 776 776 776 775 775 774 773 773 772 773 773 773 773 773 773 773 773 773 773 773 772 772
806 806 805 805 804 803 803 802 801 801 799 798 797 796 796 795 793 793 792 791 791 790 790 789 789 788 788 788 788 787 787 787 786 786 786 785 784 783 783 782 782 781 781 780 779 777 776 776 775 775 774 774 773 772 771 771 771 771 772 772 772 772 772 772 772 771 771 771 771
806 805 805 804 803 803 802 801 801 800 799 798 797 796 795 794 793 792 791 791 790 790 790 789 789 789 788 788 788 788 787 787 786 786 785 785 784 783 783 782 781 781 780 779 778 777 776 775 775 774 773 773 772 772 771 771 771 771 771 771 771 771 771 771 771 771 771 770 770
805 804 804 803 803 802 802 801 800 799 798 797 796 796 795 793 792 792 791 791 790 790 790 789 789 789 789 789 788 788 787 786 786 785 785 785 784 783 783 782 781 780 780 778 777 776 776 775 774 773 773 772 772 772 771 771 770 770 770 770 770 770 770 770 770 770 769 769 769
804 804 803 803 802 802 801 800 799 799 798 797 796 795 794 793 792 792 791 791 791 790 790 790 789 789 788 788 787 787 786 786 785 785 785 784 783 783 782 781 781 780 779 778 777 776 776 775 774 774 773 773 773 773 772 771 770 770 769 769 769 769 769 769 769 768 768 768 768
804 803 802 802 801 801 800 800 799 798 797 796 796 795 794 793 792 791 791 791 791 790 789 789 788 788 787 786 786 786 785 785 785 784 784 783 783 782 781 781 780 780 779 779 778 777 776 776 775 775 775 774 774 773 773 771 771 770 769 769 768 768 768 767 767 767 767 766 766
803 802 802 801 801 800 799 799 798 797 796 796 795 794 793 792 791 791 791 790 790 789 788 787 787 786 786 785 785 785 785 784 784 784 783 782 782 781 781 780 780 779 779 778 778 777 776 776 776 776 775 775 775 774 773 771 770 769 769 768 767 767 766 766 766 765 765 765 765
802 801 801 800 800 799 798 798 797 796 796 795 794 793 792 791 791 791 790 790 789 788 787 786 786 786 785 785 785 784 784 784 783 783 782 782 781 781 780 780 779 779 778 778 777 776 776 776 775 775 775 774 774 773 772 771 770 769 768 767 767 766 766 765 765 764 764 763 763
801 800 800 799 799 798 798 797 797 796 796 795 794 793 792 791 791 790 790 789 788 788 787 787 786 786 785 785 784 784 783 783 782 782 781 781 780 780 779 779 778 778 777 777 776 776 775 775 774 774 773 773 773 772 771 770 769 768 767 766 766 766 765 764 764 763 763 762 761
800 799 799 798 798 797 797 796 796 796 795 794 793 792 791 791 790 790 789 789 788 788 787 787 787 786 786 785 785 784 783 783 782 781 781 780 780 779 779 778 777 777 776 776 775 774 774 774 773 773 772 772 771 771 770 769 768 767 766 766 765 764 764 763 762 762 761 761 760
798 798 798 797 797 797 796 796 795 795 794 794 793 792 791 791 790 790 789 789 789 788 788 787 786 786 785 785 784 784 783 782 781 781 780 780 779 778 778 777 776 776 775 775 774 773 773 772 772 772 771 771 770 770 769 768 767 766 765 765 764 763 762 762 761 761 760 760 759
797 797 797 796 796 796 796 795 795 794 793 793 792 792 791 791 790 790 789 789 788 788 787 787 786 785 785 784 784 783 782 782 781 780 780 779 778 777 777 776 776 775 774 774 773 772 772 771 771 771 770 770 769 769 768 767 766 765 764 763 762 762 761 760 760 759 758 758 757
796 796 796 796 796 795 795 794 794 793 793 792 792 791 791 791 790 789 789 789 788 787 787 786 786 785 784 783 783 782 781 781 780 779 779 778 777 776 776 775 775 774 773 772 772 771 771 770 770 769 769 768 768 767 766 766 765 764 763 762 761 760 759 759 758 758 757 756 756
796 795 795 795 795 794 794 794 793 793 792 792 792 791 791 790 790 789 789 788 787 787 786 786 785 784 783 783 782 781 781 780 779 778 777 777 776 776 775 774 774 773 772 771 771 771 770 769 769 768 768 767 767 766 766 764 763 762 761 760 759 758 758 757 756 756 755 755 754
795 794 794 794 794 794 793 793 793 792 792 792 791 791 790 790 789 789 788 787 787 786 786 785 784 783 783 782 781 781 780 779 778 778 777 776 776 775 774 773 772 772 771 771 770 770 769 768 768 767 767 766 766 765 765 763 762 761 760 759 758 757 756 756 755 754 754 753 752
794 794 793 793 793 793 793 792 792 792 792 791 791 791 790 789 789 788 787 787 786 786 785 784 783 782 782 781 781 780 779 778 778 777 776 776 775 774 773 772 771 771 770 769 769 769 768 768 767 766 766 765 765 764 764 762 761 760 758 757 756 756 755 754 753 753 752 751 751
794 793 793 792 792 792 792 792 792 791 791 791 791 790 789 789 788 787 787 786 786 785 784 783 782 782 781 780 780 779 778 778 777 776 776 775 774 773 772 771 771 770 769 768 768 768 767 767 766 766 765 764 764 763 762 761 760 758 757 756 755 754 753 753 752 751 751 750 749
794 794 793 792 792 791 791 791 791 791 791 790 790 789 789 788 787 786 786 786 785 784 783 782 782 781 780 780 779 778 778 777 776 776 775 774 773 772 771 771 770 769 768 767 767 767 766 766 765 765 764 763 762 761 761 759 758 757 755 754 753 752 752 751 750 750 749 749 748
794 794 793 792 792 791 791 791 791 791 790 790 789 789 788 787 786 786 785 785 784 783 783 782 781 781 780 779 778 778 777 776 776 775 774 773 773 772 771 770 770 768 767 766 766 766 766 765 764 763 762 761 761 760 759 757 756 755 753 752 751 751 750 750 749 748 748 747 747
794 794 793 792 792 791 791 791 790 790 790 789 789 788 787 786 786 785 784 784 783 783 782 781 781 780 779 778 778 777 776 776 775 774 774 773 772 771 771 770 769 768 766 766 765 765 764 764 763 762 761 760 759 758 757 756 754 753 751 751 750 749 749 748 748 747 746 746 746
794 794 793 792 791 791 791 790 790 789 789 788 788 787 786 786 785 784 784 783 783 782 781 781 780 779 778 778 777 776 776 775 774 773 773 772 771 771 770 769 768 767 766 765 764 764 763 762 761 761 760 759 758 757 756 754 752 751 750 749 748 747 747 747 746 746 745 745 744
793 793 793 792 791 791 790 790 789 789 788 787 787 786 786 785 784 784 783 783 782 781 781 780 779 778 778 777 776 776 775 774 773 772 772 771 771 770 769 768 767 767 766 765 764 763 762 761 760 759 758 757 756 755 754 753 751 750 749 747 747 746 746 746 745 745 744 744 743
793 792 792 792 791 791 790 789 789 788 787 787 786 785 785 784 783 783 782 782 781 781 780 779 778 778 777 776 776 775 774 773 773 772 771 771 770 769 768 767 766 766 765 764 763 762 761 760 759 758 757 756 756 754 753 751 750 749 748 747 746 746 745 745 744 743 743 742 741
792 792 792 791 791 790 789 789 788 788 787 786 785 785 784 783 783 782 782 781 781 780 779 778 778 777 776 776 775 774 773 773 772 771 771 770 769 768 768 767 766 765 764 763 762 761 760 759 758 757 756 756 755 753 752 751 749 748 747 746 746 745 744 744 743 742 741 741 740
792 791 791 791 790 789 789 788 788 787 786 786 785 784 783 783 782 782 781 781 780 779 779 778 777 776 776 775 774 773 772 772 771 771 770 769 768 767 766 766 765 764 763 762 761 760 759 758 757 756 755 755 754 753 751 750 749 747 746 745 745 744 743 742 741 741 740 739 739
791 791 790 790 789 789 788 788 787 787 786 785 784 783 783 782 782 781 781 780 779 779 778 777 776 776 775 774 773 772 771 771 770 770 769 768 767 766 766 765 764 763 762 761 760 759 758 757 756 755 755 754 753 752 751 749 748 746 745 744 744 743 742 741 740 740 739 738 737